| time (UTC) | temp F | wind direction | speed MPH | gust MPH | rain 1hr in | rain 24hr in | rain mn in | humidity % | barometer mb |
| 20260902234807 | 74 | 78 | 0.0 | 0.0 | 0.00 | 0.00 | 0.00 | 80 | 1018.8 |
| 20260902234207 | 75 | 78 | 0.0 | 0.0 | 0.00 | 0.00 | 0.00 | 78 | 1018.8 |
| 20260902233607 | 75 | 78 | 1.0 | 2.0 | 0.00 | 0.00 | 0.00 | 77 | 1018.9 |
| 20260902233016 | 75 | 78 | 1.0 | 2.0 | 0.00 | 0.00 | 0.00 | 77 | 1018.9 |
| 20260902233007 | 75 | 78 | 1.0 | 2.0 | 0.00 | 0.00 | 0.00 | 77 | 1018.9 |
| 20260902232407 | 74 | 78 | 0.0 | 0.0 | 0.00 | 0.00 | 0.00 | 78 | 1018.9 |
| 20260902231809 | 74 | 78 | 1.0 | 2.0 | 0.00 | 0.00 | 0.00 | 78 | 1019.0 |
| 20260902231208 | 74 | 81 | 1.0 | 3.0 | 0.00 | 0.00 | 0.00 | 78 | 1019.0 |
| 20260902225408 | 74 | 78 | 0.0 | 1.0 | 0.00 | 0.00 | 0.00 | 81 | 1018.7 |
| 20260902224807 | 74 | 78 | 0.0 | 0.0 | 0.00 | 0.00 | 0.00 | 83 | 1018.8 |
| 20260902224207 | 75 | 78 | 0.0 | 0.0 | 0.00 | 0.00 | 0.00 | 82 | 1018.6 |
| 20260902223007 | 75 | 78 | 0.0 | 0.0 | 0.00 | 0.00 | 0.00 | 80 | 1018.7 |
| 20260902222407 | 75 | 78 | 0.0 | 0.0 | 0.00 | 0.00 | 0.00 | 78 | 1018.6 |
| 20260902221807 | 75 | 78 | 0.0 | 0.0 | 0.00 | 0.00 | 0.00 | 78 | 1018.7 |
| 20260902221210 | 76 | 78 | 0.0 | 0.0 | 0.00 | 0.00 | 0.00 | 77 | 1018.6 |
| 20260902215409 | 76 | 78 | 0.0 | 0.0 | 0.00 | 0.00 | 0.00 | 76 | 1018.4 |
| 20260902214808 | 76 | 48 | 0.0 | 2.0 | 0.00 | 0.00 | 0.00 | 76 | 1018.4 |
| 20260902214210 | 76 | 48 | 0.0 | 1.0 | 0.00 | 0.00 | 0.00 | 76 | 1018.4 |
| 20260902213007 | 75 | 321 | 2.0 | 2.0 | 0.00 | 0.00 | 0.00 | 78 | 1018.3 |
| 20260902212407 | 75 | 342 | 0.0 | 0.0 | 0.00 | 0.00 | 0.00 | 80 | 1018.3 |
| 20260902211807 | 75 | 342 | 0.0 | 0.0 | 0.00 | 0.00 | 0.00 | 81 | 1018.2 |
| 20260902211209 | 75 | 342 | 1.0 | 2.0 | 0.00 | 0.00 | 0.00 | 82 | 1018.4 |
| 20260902205407 | 78 | 90 | 0.0 | 0.0 | 0.00 | 0.00 | 0.00 | 77 | 1018.1 |
| 20260902204809 | 78 | 90 | 0.0 | 0.0 | 0.00 | 0.00 | 0.00 | 77 | 1018.1 |
| 20260902204216 | 78 | 90 | 1.0 | 2.0 | 0.00 | 0.00 | 0.00 | 77 | 1018.0 |
| 20260902203010 | 78 | 90 | 0.0 | 0.0 | 0.00 | 0.00 | 0.00 | 76 | 1017.9 |
| 20260902202410 | 77 | 90 | 0.0 | 0.0 | 0.00 | 0.00 | 0.00 | 76 | 1017.9 |
| 20260902201807 | 77 | 90 | 0.0 | 0.0 | 0.00 | 0.00 | 0.00 | 77 | 1017.8 |
| 20260902201207 | 77 | 90 | 0.0 | 0.0 | 0.00 | 0.00 | 0.00 | 76 | 1017.9 |
| 20260902200610 | 77 | 90 | 0.0 | 0.0 | 0.00 | 0.00 | 0.00 | 76 | 1017.8 |
| 20260902195406 | 78 | 90 | 0.0 | 0.0 | 0.00 | 0.00 | 0.00 | 75 | 1017.8 |
| 20260902194806 | 78 | 90 | 0.0 | 0.0 | 0.00 | 0.00 | 0.00 | 73 | 1017.8 |
| 20260902194207 | 78 | 90 | 0.0 | 0.0 | 0.00 | 0.00 | 0.00 | 73 | 1017.7 |
| 20260902193606 | 78 | 90 | 0.0 | 0.0 | 0.00 | 0.00 | 0.00 | 71 | 1017.6 |
| 20260902193009 | 78 | 90 | 0.0 | 0.0 | 0.00 | 0.00 | 0.00 | 70 | 1017.6 |
| 20260902192409 | 79 | 90 | 0.0 | 0.0 | 0.00 | 0.00 | 0.00 | 69 | 1017.6 |
| 20260902191807 | 79 | 90 | 0.0 | 0.0 | 0.00 | 0.00 | 0.00 | 69 | 1017.6 |
| 20260902191206 | 79 | 90 | 0.0 | 0.0 | 0.00 | 0.00 | 0.00 | 67 | 1017.5 |
| 20260902185407 | 80 | 90 | 0.0 | 0.0 | 0.00 | 0.00 | 0.00 | 67 | 1017.5 |
| 20260902184809 | 80 | 90 | 0.0 | 0.0 | 0.00 | 0.00 | 0.00 | 66 | 1017.3 |
| 20260902184207 | 80 | 90 | 0.0 | 0.0 | 0.00 | 0.00 | 0.00 | 66 | 1017.3 |
| 20260902183008 | 81 | 90 | 0.0 | 0.0 | 0.00 | 0.00 | 0.00 | 64 | 1017.0 |
| 20260902182408 | 81 | 90 | 0.0 | 0.0 | 0.00 | 0.00 | 0.00 | 61 | 1017.0 |
| 20260902181806 | 82 | 90 | 0.0 | 0.0 | 0.00 | 0.00 | 0.00 | 60 | 1016.9 |
| 20260902181206 | 82 | 90 | 0.0 | 0.0 | 0.00 | 0.00 | 0.00 | 60 | 1016.8 |
| 20260902175408 | 83 | 124 | 0.0 | 0.0 | 0.00 | 0.00 | 0.00 | 57 | 1016.7 |
| 20260902174806 | 84 | 124 | 0.0 | 1.0 | 0.00 | 0.00 | 0.00 | 56 | 1016.7 |
| 20260902174207 | 84 | 125 | 1.0 | 2.0 | 0.00 | 0.00 | 0.00 | 54 | 1016.7 |
| 20260902173007 | 84 | 147 | 0.0 | 0.0 | 0.00 | 0.00 | 0.00 | 54 | 1016.7 |
| 20260902172410 | 84 | 138 | 1.0 | 2.0 | 0.00 | 0.00 | 0.00 | 54 | 1016.6 |
| 20260902171809 | 85 | 129 | 2.0 | 3.0 | 0.00 | 0.00 | 0.00 | 53 | 1016.7 |
| 20260902171207 | 86 | 116 | 1.0 | 3.0 | 0.00 | 0.00 | 0.00 | 51 | 1016.7 |
| 20260902165409 | 88 | 157 | 0.0 | 1.0 | 0.00 | 0.00 | 0.00 | 48 | 1016.7 |
| 20260902164807 | 86 | 175 | 0.0 | 2.0 | 0.00 | 0.00 | 0.00 | 46 | 1016.7 |
| 20260902164210 | 86 | 148 | 0.0 | 1.0 | 0.00 | 0.00 | 0.00 | 45 | 1016.6 |
| 20260902162407 | 87 | 265 | 2.0 | 3.0 | 0.00 | 0.00 | 0.00 | 38 | 1016.6 |
| 20260902161807 | 89 | 241 | 0.0 | 0.0 | 0.00 | 0.00 | 0.00 | 37 | 1016.6 |
| 20260902161208 | 90 | 227 | 1.0 | 2.0 | 0.00 | 0.00 | 0.00 | 36 | 1016.5 |
| 20260902155407 | 89 | 196 | 0.0 | 2.0 | 0.00 | 0.00 | 0.00 | 37 | 1016.5 |
| 20260902154807 | 90 | 200 | 1.0 | 3.0 | 0.00 | 0.00 | 0.00 | 36 | 1016.6 |
| 20260902154207 | 88 | 131 | 0.0 | 0.0 | 0.00 | 0.00 | 0.00 | 34 | 1016.6 |
| 20260902153007 | 88 | 222 | 1.0 | 2.0 | 0.00 | 0.00 | 0.00 | 36 | 1016.7 |
| 20260902152408 | 90 | 249 | 1.0 | 2.0 | 0.00 | 0.00 | 0.00 | 36 | 1016.7 |
| 20260902151810 | 90 | 240 | 2.0 | 4.0 | 0.00 | 0.00 | 0.00 | 37 | 1016.8 |
| 20260902151207 | 91 | 229 | 1.0 | 2.0 | 0.00 | 0.00 | 0.00 | 37 | 1016.9 |
| 20260902145409 | 89 | 289 | 1.0 | 2.0 | 0.00 | 0.00 | 0.00 | 37 | 1017.1 |
| 20260902144807 | 89 | 234 | 2.0 | 4.0 | 0.00 | 0.00 | 0.00 | 37 | 1017.1 |
| 20260902144209 | 90 | 156 | 1.0 | 4.0 | 0.00 | 0.00 | 0.00 | 36 | 1017.1 |
| 20260902143009 | 90 | 223 | 2.0 | 3.0 | 0.00 | 0.00 | 0.00 | 37 | 1017.3 |
| 20260902142409 | 89 | 269 | 2.0 | 4.0 | 0.00 | 0.00 | 0.00 | 37 | 1017.4 |
| 20260902141807 | 89 | 229 | 2.0 | 4.0 | 0.00 | 0.00 | 0.00 | 38 | 1017.4 |
| 20260902141210 | 88 | 265 | 2.0 | 2.0 | 0.00 | 0.00 | 0.00 | 37 | 1017.4 |
| 20260902135410 | 88 | 210 | 1.0 | 2.0 | 0.00 | 0.00 | 0.00 | 38 | 1017.5 |
| 20260902134807 | 88 | 250 | 2.0 | 3.0 | 0.00 | 0.00 | 0.00 | 39 | 1017.4 |
| 20260902134207 | 89 | 272 | 2.0 | 3.0 | 0.00 | 0.00 | 0.00 | 37 | 1017.4 |
| 20260902133008 | 88 | 267 | 2.0 | 3.0 | 0.00 | 0.00 | 0.00 | 36 | 1017.7 |
| 20260902132407 | 87 | 262 | 0.0 | 1.0 | 0.00 | 0.00 | 0.00 | 36 | 1017.7 |
| 20260902131810 | 87 | 261 | 2.0 | 2.0 | 0.00 | 0.00 | 0.00 | 39 | 1017.7 |
| 20260902131207 | 86 | 312 | 2.0 | 3.0 | 0.00 | 0.00 | 0.00 | 39 | 1017.8 |
| 20260902125410 | 87 | 317 | 1.0 | 2.0 | 0.00 | 0.00 | 0.00 | 39 | 1017.9 |
| 20260902124809 | 88 | 298 | 2.0 | 3.0 | 0.00 | 0.00 | 0.00 | 38 | 1018.0 |
| 20260902124210 | 87 | 284 | 1.0 | 2.0 | 0.00 | 0.00 | 0.00 | 39 | 1018.0 |
| 20260902123010 | 86 | 294 | 3.0 | 5.0 | 0.00 | 0.00 | 0.00 | 39 | 1018.1 |
| 20260902122408 | 86 | 42 | 1.0 | 3.0 | 0.00 | 0.00 | 0.00 | 39 | 1018.3 |
| 20260902121807 | 84 | 60 | 3.0 | 4.0 | 0.00 | 0.00 | 0.00 | 40 | 1018.2 |
| 20260902121207 | 85 | 310 | 1.0 | 2.0 | 0.00 | 0.00 | 0.00 | 40 | 1018.3 |
| 20260902115407 | 87 | 75 | 2.0 | 3.0 | 0.00 | 0.00 | 0.00 | 40 | 1018.4 |
| 20260902114810 | 86 | 21 | 3.0 | 4.0 | 0.00 | 0.00 | 0.00 | 40 | 1018.5 |
| 20260902114209 | 84 | 309 | 1.0 | 3.0 | 0.00 | 0.00 | 0.00 | 39 | 1018.5 |
| 20260902113607 | 86 | 82 | 1.0 | 2.0 | 0.00 | 0.00 | 0.00 | 39 | 1018.8 |
| 20260902113007 | 86 | 38 | 1.0 | 4.0 | 0.00 | 0.00 | 0.00 | 39 | 1018.8 |
| 20260902112408 | 85 | 351 | 1.0 | 4.0 | 0.00 | 0.00 | 0.00 | 41 | 1018.8 |
| 20260902111808 | 86 | 57 | 1.0 | 2.0 | 0.00 | 0.00 | 0.00 | 40 | 1018.8 |
| 20260902111209 | 85 | 312 | 3.0 | 4.0 | 0.00 | 0.00 | 0.00 | 40 | 1018.9 |
| 20260902105409 | 84 | 309 | 1.0 | 3.0 | 0.00 | 0.00 | 0.00 | 42 | 1019.1 |
| 20260902105230 | 85 | 55 | 2.0 | 2.0 | 0.00 | 0.00 | 0.00 | 42 | 1019.2 |
| 20260902104807 | 85 | 55 | 2.0 | 2.0 | 0.00 | 0.00 | 0.00 | 42 | 1019.2 |
| 20260902104207 | 85 | 328 | 1.0 | 2.0 | 0.00 | 0.00 | 0.00 | 43 | 1019.2 |
| 20260902103007 | 85 | 318 | 1.0 | 2.0 | 0.00 | 0.00 | 0.00 | 43 | 1019.4 |
| 20260902102407 | 84 | 358 | 3.0 | 3.0 | 0.00 | 0.00 | 0.00 | 42 | 1019.3 |
| 20260902101807 | 86 | 5 | 2.0 | 2.0 | 0.00 | 0.00 | 0.00 | 41 | 1019.4 |
| 20260902101207 | 84 | 346 | 1.0 | 4.0 | 0.00 | 0.00 | 0.00 | 41 | 1019.4 |
| 20260902100607 | 84 | 305 | 3.0 | 5.0 | 0.00 | 0.00 | 0.00 | 42 | 1019.5 |
| 20260902095407 | 83 | 355 | 3.0 | 5.0 | 0.00 | 0.00 | 0.00 | 44 | 1019.5 |
| 20260902094807 | 82 | 52 | 4.0 | 6.0 | 0.00 | 0.00 | 0.00 | 44 | 1019.7 |
| 20260902094741 | 83 | 84 | 4.0 | 5.0 | 0.00 | 0.00 | 0.00 | 48 | 1019.7 |
| 20260902094209 | 83 | 332 | 3.0 | 5.0 | 0.00 | 0.00 | 0.00 | 45 | 1019.7 |
| 20260902093609 | 83 | 84 | 4.0 | 5.0 | 0.00 | 0.00 | 0.00 | 48 | 1019.7 |
| 20260902093009 | 84 | 31 | 2.0 | 4.0 | 0.00 | 0.00 | 0.00 | 48 | 1019.7 |
| 20260902092410 | 82 | 13 | 1.0 | 2.0 | 0.00 | 0.00 | 0.00 | 48 | 1019.7 |
| 20260902091209 | 82 | 304 | 2.0 | 3.0 | 0.00 | 0.00 | 0.00 | 46 | 1019.8 |
| 20260902085407 | 82 | 38 | 3.0 | 6.0 | 0.00 | 0.00 | 0.00 | 50 | 1019.7 |
| 20260902084807 | 81 | 65 | 3.0 | 7.0 | 0.00 | 0.00 | 0.00 | 50 | 1019.7 |
| 20260902084209 | 81 | 22 | 3.0 | 5.0 | 0.00 | 0.00 | 0.00 | 51 | 1019.6 |
| 20260902083007 | 80 | 65 | 4.0 | 6.0 | 0.00 | 0.00 | 0.00 | 51 | 1019.7 |
| 20260902082409 | 80 | 61 | 4.0 | 6.0 | 0.00 | 0.00 | 0.00 | 52 | 1019.5 |
| 20260902081809 | 80 | 64 | 5.0 | 7.0 | 0.00 | 0.00 | 0.00 | 53 | 1019.7 |
| 20260902081210 | 80 | 49 | 3.0 | 5.0 | 0.00 | 0.00 | 0.00 | 53 | 1019.5 |
| 20260902080607 | 80 | 335 | 2.0 | 3.0 | 0.00 | 0.00 | 0.00 | 53 | 1019.5 |
| 20260902075407 | 80 | 58 | 4.0 | 5.0 | 0.00 | 0.00 | 0.00 | 54 | 1019.4 |
| 20260902074807 | 80 | 357 | 0.0 | 2.0 | 0.00 | 0.00 | 0.00 | 56 | 1019.5 |
| 20260902074207 | 80 | 305 | 0.0 | 1.0 | 0.00 | 0.00 | 0.00 | 57 | 1019.5 |
| 20260902073609 | 78 | 305 | 0.0 | 2.0 | 0.00 | 0.00 | 0.00 | 58 | 1019.4 |
| 20260902073007 | 79 | 304 | 2.0 | 3.0 | 0.00 | 0.00 | 0.00 | 58 | 1019.4 |
| 20260902072409 | 78 | 311 | 2.0 | 3.0 | 0.00 | 0.00 | 0.00 | 60 | 1019.4 |
| 20260902071807 | 79 | 302 | 0.0 | 0.0 | 0.00 | 0.00 | 0.00 | 61 | 1019.2 |
| 20260902071207 | 78 | 303 | 0.0 | 0.0 | 0.00 | 0.00 | 0.00 | 65 | 1019.2 |
| 20260902070607 | 78 | 304 | 0.0 | 0.0 | 0.00 | 0.00 | 0.00 | 66 | 1019.2 |
| 20260902065407 | 77 | 300 | 1.0 | 2.0 | 0.00 | 0.00 | 0.00 | 69 | 1019.3 |
| 20260902064807 | 76 | 301 | 1.0 | 2.0 | 0.00 | 0.00 | 0.00 | 71 | 1019.3 |
| 20260902064210 | 75 | 289 | 2.0 | 2.0 | 0.00 | 0.00 | 0.00 | 72 | 1019.2 |
| 20260902063607 | 76 | 13 | 0.0 | 0.0 | 0.00 | 0.00 | 0.00 | 70 | 1019.1 |
| 20260902063007 | 75 | 13 | 1.0 | 3.0 | 0.00 | 0.00 | 0.00 | 73 | 1019.2 |
| 20260902062407 | 76 | 17 | 0.0 | 1.0 | 0.00 | 0.00 | 0.00 | 72 | 1019.3 |
| 20260902061810 | 75 | 17 | 0.0 | 0.0 | 0.00 | 0.00 | 0.00 | 72 | 1019.2 |
| 20260902061208 | 73 | 12 | 0.0 | 0.0 | 0.00 | 0.00 | 0.00 | 77 | 1019.2 |
| 20260902060608 | 72 | 12 | 0.0 | 1.0 | 0.00 | 0.00 | 0.00 | 78 | 1019.1 |
| 20260902055410 | 71 | 12 | 0.0 | 2.0 | 0.00 | 0.00 | 0.00 | 82 | 1019.0 |
| 20260902054807 | 70 | 12 | 2.0 | 2.0 | 0.00 | 0.00 | 0.00 | 85 | 1019.0 |
| 20260902054207 | 70 | 12 | 2.0 | 2.0 | 0.00 | 0.00 | 0.00 | 85 | 1018.9 |
| 20260902054026 | 70 | 24 | 0.0 | 1.0 | 0.00 | 0.00 | 0.00 | 83 | 1018.8 |
| 20260902053607 | 70 | 24 | 0.0 | 1.0 | 0.00 | 0.00 | 0.00 | 83 | 1018.8 |
| 20260902053007 | 70 | 24 | 0.0 | 0.0 | 0.00 | 0.00 | 0.00 | 86 | 1018.8 |
| 20260902052407 | 69 | 24 | 0.0 | 0.0 | 0.00 | 0.00 | 0.00 | 87 | 1018.8 |
| 20260902051807 | 69 | 24 | 0.0 | 0.0 | 0.00 | 0.00 | 0.00 | 86 | 1018.8 |
| 20260902051207 | 69 | 24 | 0.0 | 0.0 | 0.00 | 0.00 | 0.00 | 87 | 1018.8 |
| 20260902050607 | 68 | 24 | 1.0 | 2.0 | 0.00 | 0.00 | 0.00 | 88 | 1018.8 |
| 20260902045409 | 68 | 24 | 0.0 | 1.0 | 0.00 | 0.00 | 0.00 | 90 | 1018.8 |
| 20260902044807 | 67 | 26 | 0.0 | 0.0 | 0.00 | 0.00 | 0.00 | 91 | 1018.7 |
| 20260902044208 | 67 | 26 | 0.0 | 0.0 | 0.00 | 0.00 | 0.00 | 91 | 1018.8 |
| 20260902043610 | 67 | 26 | 0.0 | 0.0 | 0.00 | 0.00 | 0.00 | 91 | 1018.9 |
| 20260902043007 | 67 | 26 | 0.0 | 0.0 | 0.00 | 0.00 | 0.00 | 91 | 1018.8 |
| 20260902042407 | 67 | 26 | 0.0 | 0.0 | 0.00 | 0.00 | 0.00 | 91 | 1018.7 |
| 20260902041810 | 68 | 26 | 0.0 | 0.0 | 0.00 | 0.00 | 0.00 | 91 | 1018.7 |
| 20260902041209 | 68 | 26 | 0.0 | 0.0 | 0.00 | 0.00 | 0.00 | 90 | 1018.7 |
| 20260902040609 | 68 | 26 | 0.0 | 0.0 | 0.00 | 0.00 | 0.00 | 90 | 1018.6 |
| 20260902035410 | 68 | 26 | 0.0 | 0.0 | 0.00 | 0.00 | 0.00 | 90 | 1018.7 |
| 20260902034806 | 68 | 26 | 0.0 | 0.0 | 0.00 | 0.00 | 0.00 | 90 | 1018.6 |
| 20260902034207 | 68 | 26 | 0.0 | 0.0 | 0.00 | 0.00 | 0.00 | 90 | 1018.7 |
| 20260902033607 | 68 | 26 | 0.0 | 0.0 | 0.00 | 0.00 | 0.00 | 88 | 1018.7 |
| 20260902033009 | 68 | 26 | 0.0 | 0.0 | 0.00 | 0.00 | 0.00 | 88 | 1018.6 |
| 20260902032407 | 69 | 26 | 0.0 | 0.0 | 0.00 | 0.00 | 0.00 | 88 | 1018.6 |
| 20260902031806 | 69 | 26 | 0.0 | 0.0 | 0.00 | 0.00 | 0.00 | 87 | 1018.6 |
| 20260902031207 | 69 | 26 | 0.0 | 0.0 | 0.00 | 0.00 | 0.00 | 87 | 1018.6 |
| 20260902030607 | 69 | 26 | 0.0 | 0.0 | 0.00 | 0.00 | 0.00 | 86 | 1018.7 |
| 20260902025409 | 70 | 26 | 0.0 | 0.0 | 0.00 | 0.00 | 0.00 | 85 | 1018.6 |
| 20260902024807 | 69 | 26 | 0.0 | 1.0 | 0.00 | 0.00 | 0.00 | 85 | 1018.6 |
| 20260902024207 | 69 | 26 | 0.0 | 0.0 | 0.00 | 0.00 | 0.00 | 86 | 1018.5 |
| 20260902023607 | 70 | 26 | 0.0 | 0.0 | 0.00 | 0.00 | 0.00 | 85 | 1018.6 |
| 20260902023010 | 70 | 26 | 0.0 | 0.0 | 0.00 | 0.00 | 0.00 | 83 | 1018.6 |
| 20260902022408 | 70 | 26 | 0.0 | 0.0 | 0.00 | 0.00 | 0.00 | 83 | 1018.6 |
| 20260902021808 | 70 | 26 | 2.0 | 2.0 | 0.00 | 0.00 | 0.00 | 83 | 1018.6 |
| 20260902021209 | 70 | 26 | 0.0 | 0.0 | 0.00 | 0.00 | 0.00 | 83 | 1018.6 |
| 20260902020607 | 70 | 26 | 1.0 | 1.0 | 0.00 | 0.00 | 0.00 | 83 | 1018.6 |
| 20260902015407 | 70 | 26 | 0.0 | 0.0 | 0.00 | 0.00 | 0.00 | 83 | 1018.6 |
| 20260902014807 | 71 | 26 | 0.0 | 0.0 | 0.00 | 0.00 | 0.00 | 83 | 1018.6 |
| 20260902014207 | 71 | 26 | 0.0 | 0.0 | 0.00 | 0.00 | 0.00 | 82 | 1018.5 |
| 20260902013608 | 71 | 26 | 0.0 | 1.0 | 0.00 | 0.00 | 0.00 | 82 | 1018.6 |
| 20260902013007 | 71 | 26 | 0.0 | 0.0 | 0.00 | 0.00 | 0.00 | 83 | 1018.4 |
| 20260902012407 | 71 | 26 | 0.0 | 0.0 | 0.00 | 0.00 | 0.00 | 83 | 1018.5 |
| 20260902011807 | 71 | 26 | 0.0 | 0.0 | 0.00 | 0.00 | 0.00 | 83 | 1018.5 |
| 20260902011207 | 71 | 26 | 0.0 | 0.0 | 0.00 | 0.00 | 0.00 | 83 | 1018.6 |
| 20260902010610 | 71 | 26 | 0.0 | 1.0 | 0.00 | 0.00 | 0.00 | 82 | 1018.7 |
| 20260902005409 | 72 | 26 | 0.0 | 0.0 | 0.00 | 0.00 | 0.00 | 81 | 1018.7 |
| 20260902004809 | 72 | 24 | 0.0 | 0.0 | 0.00 | 0.00 | 0.00 | 81 | 1018.7 |
| 20260902004209 | 72 | 24 | 1.0 | 2.0 | 0.00 | 0.00 | 0.00 | 80 | 1018.8 |
| 20260902003609 | 71 | 14 | 0.0 | 0.0 | 0.00 | 0.00 | 0.00 | 81 | 1018.7 |
| 20260902003007 | 71 | 14 | 0.0 | 0.0 | 0.00 | 0.00 | 0.00 | 82 | 1018.8 |
| 20260902002410 | 71 | 14 | 0.0 | 0.0 | 0.00 | 0.00 | 0.00 | 82 | 1018.8 |
| 20260902001810 | 72 | 14 | 0.0 | 0.0 | 0.00 | 0.00 | 0.00 | 81 | 1018.8 |
| 20260902001208 | 72 | 14 | 0.0 | 0.0 | 0.00 | 0.00 | 0.00 | 81 | 1018.9 |
| 20260902000607 | 72 | 14 | 0.0 | 1.0 | 0.00 | 0.00 | 0.00 | 81 | 1018.9 |
| 20260901235407 | 72 | 14 | 0.0 | 0.0 | 0.00 | 0.00 | 0.00 | 81 | 1018.9 |